CW1075 Weather Reports


time (UTC)temp
C
wind
direction
speed
KPH
gust
KPH
rain 1hr
cm
rain 24hr
cm
rain mn
cm
humidity
%
barometer
mb
20260507134549 13 360 0.0 0.0 0.00 0.00 0.00 72 1013.5
20260507133046 13 360 0.0 0.0 0.00 0.00 0.00 74 1013.4
20260507131539 13 360 0.0 0.0 0.00 0.00 0.00 74 1013.5
20260507130012 13 360 0.0 0.0 0.00 0.00 0.00 73 1013.4
20260507124500 13 360 0.0 0.0 0.00 0.00 0.00 73 1013.2
20260507123057 13 360 0.0 0.0 0.00 0.00 0.00 72 1013.2
20260507121557 13 360 0.0 0.0 0.00 0.00 0.00 73 1013.1
20260507120053 13 360 0.0 0.0 0.00 0.00 0.00 72 1012.9
20260507114556 14 360 0.0 0.0 0.00 0.00 0.00 72 1012.7
20260507113050 14 360 0.0 0.0 0.00 0.00 0.00 72 1012.7
20260507111557 14 360 0.0 0.0 0.00 0.00 0.00 71 1012.7
20260507110044 15 360 0.0 0.0 0.00 0.00 0.00 70 1012.7
20260507104543 15 360 0.0 0.0 0.00 0.00 0.00 70 1012.6
20260507103040 15 360 0.0 0.0 0.00 0.00 0.00 71 1012.7
20260507101538 15 360 0.0 0.0 0.00 0.00 0.00 69 1012.7
20260507100035 15 360 0.0 0.0 0.00 0.00 0.00 68 1012.6
20260507094534 15 360 0.0 0.0 0.00 0.00 0.00 67 1012.6
20260507093040 15 360 0.0 0.0 0.00 0.00 0.00 68 1012.6
20260507091533 16 360 0.0 0.0 0.00 0.00 0.00 67 1012.6
20260507090028 15 360 0.0 0.0 0.00 0.00 0.00 68 1012.6
20260507084528 16 360 0.0 0.0 0.00 0.00 0.00 67 1012.5
20260507083057 16 360 0.0 0.0 0.00 0.00 0.00 67 1012.4
20260507081556 16 360 0.0 0.0 0.00 0.00 0.00 66 1012.4
20260507080053 16 360 0.0 0.0 0.00 0.00 0.00 66 1012.3
20260507074557 16 360 0.0 0.0 0.00 0.00 0.00 66 1012.4
20260507073053 16 360 0.0 0.0 0.00 0.00 0.00 65 1012.1
20260507071552 16 360 0.0 0.0 0.00 0.00 0.00 65 1012.1
20260507070052 17 360 0.0 0.0 0.00 0.00 0.00 62 1011.9
20260507064606 17 360 0.0 0.0 0.00 0.00 0.00 60 1012.1
20260507063053 17 360 0.0 0.0 0.00 0.00 0.00 59 1011.9
20260507061549 17 360 0.0 0.0 0.00 0.00 0.00 58 1011.9
20260507060049 18 360 0.0 0.0 0.00 0.00 0.00 57 1011.7
20260507054550 18 360 0.0 0.0 0.00 0.00 0.00 56 1011.5
20260507053046 18 360 0.0 0.0 0.00 0.00 0.00 55 1011.5
20260507051545 18 360 0.0 0.0 0.00 0.00 0.00 55 1011.4
20260507050043 19 360 0.0 0.0 0.00 0.00 0.00 54 1011.4
20260507044543 19 360 0.0 0.0 0.00 0.00 0.00 54 1011.3
20260507043042 20 360 0.0 0.0 0.00 0.00 0.00 53 1011.1
20260507041551 20 360 0.0 0.0 0.00 0.00 0.00 51 1011.0
20260507040011 20 360 0.0 0.0 0.00 0.00 0.00 50 1010.9
20260507034513 20 360 0.0 0.0 0.00 0.00 0.00 50 1010.7
20260507033011 21 360 0.0 0.0 0.00 0.00 0.00 49 1010.4
20260507031506 21 360 0.0 0.0 0.00 0.00 0.00 48 1010.2
20260507030005 22 360 0.0 0.0 0.00 0.00 0.00 46 1010.1
20260507024506 22 360 0.0 0.0 0.00 0.00 0.00 46 1009.9
20260507023004 22 360 0.0 0.0 0.00 0.00 0.00 45 1009.9
20260507021502 23 360 0.0 0.0 0.00 0.00 0.00 44 1009.7
20260507020003 23 360 0.0 0.0 0.00 0.00 0.00 42 1009.7
20260507014506 24 360 0.0 0.0 0.00 0.00 0.00 41 1009.5
20260507013114 25 360 0.0 0.0 0.00 0.00 0.00 41 1009.3
20260507011600 25 360 0.0 0.0 0.00 0.00 0.00 41 1009.1
20260507010059 25 360 0.0 0.0 0.00 0.00 0.00 42 1008.9
20260507004558 25 360 0.0 0.0 0.00 0.00 0.00 40 1008.8
20260507003056 25 360 0.0 0.0 0.00 0.00 0.00 40 1008.7
20260507001614 26 360 0.0 0.0 0.00 0.00 0.00 39 1008.6
20260507000058 26 360 0.0 0.0 0.00 0.00 0.00 39 1008.5
20260506234554 26 360 0.0 0.0 0.00 0.00 0.00 39 1008.4
20260506233054 26 360 0.0 0.0 0.00 0.00 0.00 40 1008.3
20260506231523 26 360 0.0 0.0 0.00 0.00 0.00 41 1008.4
20260506230020 27 360 0.0 0.0 0.00 0.00 0.00 39 1008.5
20260506224516 27 360 0.0 0.0 0.00 0.00 0.00 40 1008.7
20260506223014 27 360 0.0 0.0 0.00 0.00 0.00 40 1008.8
20260506221512 26 360 0.0 0.0 0.00 0.00 0.00 41 1009.0
20260506220012 26 360 0.0 0.0 0.00 0.00 0.00 41 1009.1
20260506214507 27 360 0.0 0.0 0.00 0.00 0.00 41 1009.3
20260506213010 27 360 0.0 0.0 0.00 0.00 0.00 39 1009.4
20260506211505 27 360 0.0 0.0 0.00 0.00 0.00 39 1009.6
20260506210004 27 360 0.0 0.0 0.00 0.00 0.00 40 1009.6
20260506204558 27 360 0.0 0.0 0.00 0.00 0.00 41 1009.7
20260506203102 26 360 0.0 0.0 0.00 0.00 0.00 41 1009.8
20260506201556 26 360 0.0 0.0 0.00 0.00 0.00 41 1010.0
20260506200135 26 360 0.0 0.0 0.00 0.00 0.00 43 1010.2
20260506194548 25 360 0.0 0.0 0.00 0.00 0.00 42 1010.4
20260506193046 25 360 0.0 0.0 0.00 0.00 0.00 43 1010.5
20260506191546 25 360 0.0 0.0 0.00 0.00 0.00 43 1010.5
20260506190042 25 360 0.0 0.0 0.00 0.00 0.00 46 1010.5
20260506184536 24 360 0.0 0.0 0.00 0.00 0.00 46 1010.7
20260506183035 23 360 0.0 0.0 0.00 0.00 0.00 49 1010.8
20260506181535 23 360 0.0 0.0 0.00 0.00 0.00 49 1011.2
20260506180035 23 360 0.0 0.0 0.00 0.00 0.00 50 1011.5
20260506174523 22 360 0.0 0.0 0.00 0.00 0.00 51 1011.6
20260506173017 21 360 0.0 0.0 0.00 0.00 0.00 53 1011.7
20260506171523 21 360 0.0 0.0 0.00 0.00 0.00 53 1011.9
20260506170009 21 360 0.0 0.0 0.00 0.00 0.00 54 1012.0
20260506164500 20 360 0.0 0.0 0.00 0.00 0.00 55 1012.1
20260506163106 20 360 0.0 0.0 0.00 0.00 0.00 57 1012.1
20260506161557 20 360 0.0 0.0 0.00 0.00 0.00 59 1012.1
20260506160059 19 360 0.0 0.0 0.00 0.00 0.00 60 1012.0
20260506154543 18 360 0.0 0.0 0.00 0.00 0.00 62 1012.2
20260506153043 18 360 0.0 0.0 0.00 0.00 0.00 65 1012.3
20260506151535 17 360 0.0 0.0 0.00 0.00 0.00 66 1012.4
20260506150033 17 360 0.0 0.0 0.00 0.00 0.00 68 1012.3
20260506144526 16 360 0.0 0.0 0.00 0.00 0.00 70 1012.2
20260506143020 16 360 0.0 0.0 0.00 0.00 0.00 71 1012.2
20260506141517 16 360 0.0 0.0 0.00 0.00 0.00 72 1012.1
20260506140018 15 360 0.0 0.0 0.00 0.00 0.00 72 1012.0